Temperature
20 20 21 21 23 23 23 22 21 19 19 17 16 17 18 19 19 17 13 11 10 10 9 8 8 8 8 8 8 8 8 8 7 7 7 6 6 6 5 5 5 5 5 5 5 5 5 5 5
20 21 21 22 24 23 23 22 21 20 18 14 14 15 16 17 13 13 12 11 10 9 9 8 8 8 8 8 8 8 8 8 8 7 7 6 6 6 5 5 5 5 5 5 5 5 5 5 5
20 21 22 24 23 23 23 22 21 17 14 14 15 15 16 16 12 12 12 12 10 9 8 8 8 8 8 8 8 8 8 8 8 7 7 7 6 6 6 5 5 5 5 5 5 5 5 5 5
21 21 22 24 23 23 22 22 19 16 14 14 15 16 14 13 13 13 13 12 10 9 8 8 8 8 8 8 8 8 8 8 8 7 7 7 7 6 6 6 5 5 5 5 5 5 5 5 5
21 22 24 23 23 22 21 19 17 18 17 15 15 17 15 14 14 13 13 11 10 9 8 8 8 8 8 8 8 8 8 8 8 8 7 7 7 6 6 5 5 5 5 5 5 5 5 5 5
21 23 23 23 23 22 21 17 17 18 17 15 14 16 16 14 14 13 12 11 10 9 8 8 8 8 8 8 8 8 8 8 8 7 7 7 6 6 6 5 5 5 5 5 5 5 5 5 5
22 23 23 23 23 23 21 16 17 18 18 16 15 17 15 13 13 13 11 10 9 8 8 8 7 8 8 8 8 8 8 8 7 7 7 7 6 6 5 5 5 5 5 5 5 5 5 5 5
21 23 22 22 22 22 20 16 16 16 18 15 14 17 17 13 13 12 10 9 9 9 8 8 7 7 7 7 8 7 7 7 7 7 7 6 6 6 5 5 5 5 5 5 5 4 4 4 4
20 22 22 22 22 22 18 16 15 14 15 13 13 14 14 14 13 12 10 10 9 9 8 8 7 8 8 7 7 7 7 7 7 7 6 6 6 5 5 5 5 4 4 4 4 4 4 4 4
20 22 22 22 21 21 18 17 16 14 15 14 13 13 15 14 13 13 12 12 11 10 9 8 8 8 8 7 7 7 7 7 7 6 6 6 5 5 5 5 4 4 4 4 4 4 3 3 3
21 22 21 19 17 17 17 16 15 16 18 18 17 15 15 14 13 13 13 13 13 11 10 9 8 8 8 8 7 7 7 7 7 6 6 6 5 5 5 4 4 4 4 3 3 3 3 3 2
20 20 18 18 15 15 16 16 15 15 18 18 16 15 16 15 14 14 14 13 12 11 11 10 9 8 8 8 7 7 7 7 6 6 6 6 5 5 5 4 4 4 3 3 3 3 2 2 2
20 19 16 15 14 14 14 15 16 16 16 15 15 15 16 16 15 15 14 13 12 12 11 11 9 9 8 8 7 7 7 7 6 6 6 5 5 5 5 4 4 3 3 3 3 2 2 1 1
18 17 16 15 14 14 14 16 14 16 17 15 14 14 15 15 15 15 14 13 13 13 12 11 10 9 8 8 7 7 7 7 6 6 6 5 5 5 4 4 4 3 3 2 2 2 1 1 0
15 17 19 17 15 15 14 17 17 17 16 15 15 15 15 15 15 15 15 15 15 14 13 11 11 9 8 8 7 7 7 6 6 6 6 5 5 5 4 4 3 3 3 2 2 1 1 0 -0
17 19 20 19 16 14 15 19 22 20 17 16 17 16 15 15 16 16 15 15 14 14 13 12 11 10 9 8 7 7 7 6 6 6 5 5 5 5 4 4 3 3 2 2 1 1 -0 -1 -1
20 21 21 20 17 16 16 19 22 20 17 17 18 18 16 15 15 16 16 16 15 14 13 12 12 10 9 8 8 7 7 6 6 6 5 5 5 4 4 3 3 2 2 1 1 0 -0 -1 -2
20 20 20 20 19 16 16 18 20 20 18 17 18 18 17 15 15 16 16 16 15 14 13 12 12 11 10 8 8 7 7 6 6 6 6 5 5 4 4 3 3 2 2 1 1 -0 -1 -1 -2
19 18 19 20 19 16 17 18 20 20 19 18 18 17 17 16 15 14 15 15 15 14 13 13 12 11 10 9 8 8 7 7 6 6 6 5 5 4 4 3 3 2 2 1 0 -0 -1 -2 -3
17 18 19 20 17 15 17 18 20 20 19 18 17 17 16 16 15 13 14 15 15 15 14 14 13 12 11 10 9 9 8 7 7 6 6 5 5 4 4 3 3 2 2 1 1 -0 -1 -2 -3
18 18 19 18 17 17 15 19 22 22 18 17 16 15 15 14 14 13 13 15 16 15 15 15 14 13 12 11 10 8 8 7 7 7 7 6 5 5 4 4 3 2 2 1 1 -0 -1 -2 -3
18 17 16 16 16 18 16 17 21 21 20 21 20 18 16 15 14 14 14 15 16 16 16 15 15 14 13 12 11 10 9 9 9 8 8 7 6 5 4 4 3 2 2 1 1 -0 -1 -2 -3
17 15 15 15 15 16 16 16 20 21 22 22 21 19 17 15 15 15 15 16 17 16 16 16 15 14 14 13 12 11 10 10 9 7 7 7 7 6 5 4 3 3 2 2 1 -0 -1 -2 -2
15 15 15 14 16 17 17 17 20 23 21 20 20 18 17 15 15 16 17 17 17 17 17 16 16 15 14 14 13 12 12 11 9 8 7 7 7 6 6 5 4 3 2 2 1 0 -1 -2 -2
16 17 19 19 19 19 15 15 19 21 20 18 17 16 16 15 16 16 17 17 17 17 17 17 16 16 15 15 14 14 13 12 10 9 7 7 7 7 7 5 4 3 3 2 1 -0 -1 -2 -2
16 16 18 17 18 18 16 16 20 21 19 17 16 16 16 16 16 16 16 17 17 17 17 17 17 16 16 15 15 15 14 12 11 10 8 7 7 7 6 5 4 3 2 1 1 -0 -1 -2 -2
16 16 15 16 16 15 17 18 19 20 20 20 19 17 16 16 15 15 15 16 16 17 17 16 16 16 16 16 15 15 14 13 13 11 9 7 7 6 5 4 4 3 2 1 0 -0 -1 -2 -2
14 15 15 16 16 17 18 18 19 21 21 20 19 17 16 15 14 14 14 15 15 15 16 16 16 16 15 15 14 14 13 13 12 10 9 8 7 5 4 4 3 2 1 1 -0 -1 -1 -2 -3
14 14 15 16 16 16 17 18 20 20 19 18 17 16 15 14 13 13 14 14 14 15 15 15 15 15 15 14 14 13 13 12 11 11 10 8 6 5 4 3 2 2 1 0 -0 -1 -1 -2 -3
15 15 15 16 17 15 16 17 20 19 18 16 16 15 14 13 13 13 13 13 13 14 14 14 14 14 14 14 13 13 13 12 11 11 10 8 6 5 3 2 1 1 0 -0 -1 -1 -1 -2 -3
Wind_Speed
3 2 3 3 4 4 3 1 2 4 5 4 4 4 4 4 3 1 6 12 15 16 15 16 14 12 11 10 9 9 10 10 10 11 11 12 13 14 14 15 16 16 17 18 18 19 20 20 21
2 2 3 3 5 5 2 2 5 5 4 6 5 4 5 5 1 5 10 13 16 16 15 15 15 13 12 10 10 9 9 9 10 10 10 11 12 12 13 14 15 15 16 16 17 18 18 19 20
2 2 3 4 5 5 4 1 4 5 6 6 6 5 4 3 5 8 11 18 17 16 15 15 15 14 12 11 10 9 9 9 9 9 10 10 11 11 12 13 13 14 14 15 16 16 17 18 19
2 2 3 6 6 4 4 1 5 8 7 6 6 5 4 2 4 8 15 19 17 17 16 15 16 14 13 12 11 10 9 9 9 9 9 9 10 10 11 11 12 12 13 14 14 15 16 17 18
2 3 6 8 8 4 3 2 7 9 8 8 8 6 5 6 6 11 17 19 17 17 16 16 16 15 14 12 11 10 10 9 9 8 8 8 9 9 9 9 10 11 11 12 13 14 15 16 16
2 4 8 10 10 5 4 6 7 9 8 7 8 6 4 8 11 15 18 17 17 16 15 15 17 16 15 13 12 11 10 9 9 8 8 7 7 7 7 8 8 9 10 10 11 12 13 14 15
3 5 10 12 12 11 5 7 7 9 11 10 7 6 5 10 13 16 17 17 17 17 16 15 17 16 15 14 13 12 11 10 10 9 8 7 7 7 6 6 7 7 8 9 10 11 12 13 14
1 5 11 12 13 14 4 8 5 9 8 5 7 8 4 11 16 17 17 16 15 16 17 16 16 15 15 15 14 13 12 11 11 10 9 8 7 6 5 4 5 6 6 7 8 9 10 11 12
2 7 13 13 12 10 5 8 5 4 6 6 7 5 3 14 19 18 17 16 17 17 17 17 17 16 15 14 15 14 13 12 12 11 10 8 6 5 4 4 4 5 5 6 7 8 8 8 9
3 9 12 7 6 6 5 8 6 6 10 10 10 10 7 17 21 22 22 23 23 22 20 19 18 18 16 14 14 13 13 13 12 10 10 8 6 5 4 5 4 4 3 4 5 5 6 6 7
4 8 7 5 5 5 6 7 6 9 14 15 14 16 17 19 22 23 24 24 24 23 21 19 20 19 18 15 14 12 12 12 12 12 11 9 7 6 5 5 4 3 2 0 1 2 4 5 6
5 7 6 5 4 5 6 6 8 14 16 8 11 12 20 23 25 26 26 24 22 22 23 21 22 20 20 17 15 14 13 13 12 13 13 11 8 8 7 6 5 4 3 1 1 2 3 4 5
6 6 4 6 6 8 8 12 11 18 19 12 7 13 20 23 25 25 24 22 22 23 23 22 23 21 20 18 15 15 15 14 14 13 14 13 10 9 8 7 6 5 4 3 3 3 3 5 5
3 5 7 7 8 6 9 13 10 19 14 16 16 18 20 23 25 23 23 24 24 24 24 23 23 24 22 19 17 16 16 15 15 15 16 15 12 10 9 8 7 7 6 5 4 4 5 6 6
3 7 10 8 6 4 6 13 13 18 10 15 18 20 21 23 23 26 26 26 26 25 24 24 23 24 23 21 19 17 16 16 15 15 17 17 15 13 11 9 9 8 7 7 6 6 6 7 7
4 6 7 3 5 4 5 17 14 11 13 18 19 20 21 23 25 25 24 24 24 23 23 24 20 23 23 21 19 17 17 17 16 16 16 18 18 15 13 11 10 10 9 8 7 7 6 6 7
5 7 11 10 5 5 8 21 24 12 14 20 21 20 21 21 23 24 24 24 23 23 23 24 24 24 23 22 19 18 17 17 17 17 17 18 19 18 15 12 11 11 10 9 8 7 7 7 8
9 13 15 14 6 8 14 25 31 22 19 23 24 22 21 22 23 22 23 23 22 22 22 23 24 23 22 19 16 14 15 16 17 17 18 19 19 20 18 14 14 13 11 9 9 9 8 7 7
11 13 18 19 10 8 19 28 32 27 20 22 22 21 21 22 20 17 19 21 21 21 23 23 24 23 20 17 16 16 16 14 15 18 21 22 21 21 20 15 15 15 11 11 11 10 10 9 7
9 13 17 14 3 6 18 28 28 20 15 15 16 17 17 17 16 15 16 19 22 23 24 24 25 24 24 19 17 14 14 13 15 17 20 23 23 23 21 20 15 15 12 13 13 12 9 8 8
11 12 14 14 13 8 11 15 10 7 7 8 9 10 11 12 13 14 16 19 20 23 25 22 25 25 25 22 16 13 12 11 14 17 16 22 25 25 23 22 19 17 15 13 14 14 14 10 9
10 6 9 10 11 8 6 9 13 9 10 9 10 8 7 6 8 10 13 17 20 22 20 22 23 24 24 23 21 22 19 20 20 17 17 20 25 26 26 24 22 19 16 15 15 15 13 13 10
6 3 6 8 8 9 5 6 11 8 11 15 15 14 11 8 6 7 11 14 16 17 18 20 22 23 24 25 25 24 24 22 18 17 19 20 21 25 26 26 23 20 17 17 16 15 15 13 13
4 5 4 3 3 5 1 4 8 6 11 16 17 16 14 12 9 6 6 9 12 14 16 18 21 23 23 25 26 27 28 26 23 22 20 18 16 18 25 25 23 21 18 18 17 16 17 15 15
3 6 5 4 3 3 1 6 10 9 10 11 14 15 15 13 11 9 7 6 9 13 16 17 20 22 23 25 27 28 29 28 27 25 22 20 17 18 22 22 22 20 21 20 18 17 17 18 17
2 4 4 6 6 7 4 7 9 10 10 8 8 10 13 15 14 12 9 7 8 11 14 17 20 22 22 24 26 26 27 22 21 25 22 21 19 19 21 23 22 23 22 20 19 16 17 16 17
2 2 2 4 6 7 7 7 12 5 4 8 12 14 17 17 16 14 12 10 8 8 11 14 18 20 21 23 24 24 25 25 25 24 23 21 20 18 21 22 23 22 22 21 19 16 18 16 17
2 2 3 4 5 7 8 8 7 11 14 15 16 17 19 18 17 15 13 12 10 8 8 11 15 18 18 20 21 19 23 24 24 22 24 23 22 21 21 22 22 22 22 21 20 17 17 18 17
4 4 5 4 5 6 9 9 7 12 14 13 15 18 18 17 16 14 13 12 11 9 8 9 11 14 15 17 18 20 21 22 23 23 24 24 22 22 22 22 22 22 22 22 20 20 19 19 18
4 6 6 6 8 7 9 12 10 10 10 11 16 17 15 14 13 13 13 13 13 12 10 9 10 12 14 14 16 18 19 20 22 23 24 23 23 22 22 22 22 22 22 22 22 21 20 20 19
Wind_Direction
160 191 216 224 221 239 271 143 183 172 178 157 158 193 218 225 256 355 129 151 147 151 153 152 150 144 136 128 117 106 96 88 82 76 71 67 63 59 56 54 51 48 47 45 43 42 40 40 39
184 216 214 229 247 254 257 182 203 191 148 147 174 205 224 225 111 125 153 159 156 154 155 154 151 149 143 136 127 116 106 96 89 81 75 71 65 60 57 54 51 48 46 44 43 41 38 37 37
191 249 224 224 247 276 304 196 198 145 153 176 187 218 243 215 169 169 164 161 162 160 158 153 155 153 149 144 136 126 117 107 98 89 81 75 69 62 59 55 51 48 46 43 42 40 37 36 34
233 207 223 242 254 278 297 240 174 167 179 206 208 210 216 197 173 166 157 163 167 165 163 160 162 160 156 151 144 136 128 118 108 98 90 82 74 67 62 57 52 49 45 42 41 39 36 35 33
242 242 238 247 262 263 246 218 186 197 192 196 208 230 211 165 158 157 163 168 171 169 169 167 168 166 163 159 154 147 138 129 120 110 100 91 82 73 67 61 55 49 45 42 40 38 36 33 31
221 253 256 264 274 271 236 200 191 216 208 189 208 234 208 152 165 165 167 173 175 171 173 173 173 172 170 167 162 157 149 142 133 123 112 102 93 83 73 66 59 52 46 42 39 38 35 31 29
276 272 270 277 283 281 247 179 207 219 213 204 202 222 178 177 173 168 170 176 178 177 177 177 176 177 176 174 170 166 160 153 146 137 126 114 103 93 80 71 66 57 48 44 40 38 34 30 27
319 274 271 273 279 286 216 180 226 225 223 185 197 227 209 175 167 168 172 179 183 184 185 183 181 178 178 178 176 172 168 163 156 147 139 128 117 108 96 87 74 64 52 47 42 37 34 28 26
253 267 271 277 278 286 184 200 208 222 219 201 217 235 76 146 159 168 176 186 191 193 193 191 188 184 183 182 176 177 175 171 165 160 153 150 150 143 136 98 86 74 58 49 42 36 29 21 22
233 268 275 281 270 277 215 224 213 209 224 224 222 212 157 159 170 179 187 192 195 197 196 195 194 190 188 185 181 182 180 176 181 177 172 175 173 167 155 126 111 94 72 58 43 32 19 7 4
241 266 276 253 251 259 243 232 220 226 238 233 226 204 178 177 185 192 198 199 200 198 196 198 197 194 191 188 187 185 184 184 189 189 186 183 180 177 184 183 174 171 173 151 30 353 5 360 356
249 257 260 260 231 236 243 240 230 230 246 260 237 202 179 187 194 200 203 204 201 200 199 198 198 197 197 194 193 192 191 191 191 192 192 190 190 195 196 203 201 205 210 231 279 321 334 331 329
248 264 249 250 244 247 253 247 256 252 250 244 221 190 191 198 203 207 208 206 203 203 202 200 199 199 198 198 198 198 199 197 196 193 196 198 198 200 200 205 206 212 215 224 247 270 290 297 302
276 267 264 258 248 245 255 262 252 262 252 232 221 213 208 209 208 208 209 208 206 206 204 201 200 201 199 200 201 202 202 201 200 199 200 201 204 204 203 207 210 214 217 225 240 256 271 279 283
265 281 273 241 235 246 265 265 239 252 235 230 227 225 220 219 214 213 210 209 208 206 204 202 201 202 202 204 206 205 204 202 203 203 203 203 206 206 206 210 211 213 214 220 232 242 254 264 270
250 265 276 225 210 215 246 274 270 259 232 242 240 233 226 223 220 218 215 212 210 207 205 203 200 203 204 206 207 207 207 206 207 206 205 206 207 207 208 211 214 211 212 219 226 235 245 251 262
244 281 294 298 216 219 239 277 284 276 247 255 255 246 236 231 225 222 217 213 210 207 205 203 201 204 205 206 208 210 210 210 210 208 208 208 208 208 209 214 214 209 213 218 223 230 239 250 259
296 298 294 295 282 242 263 276 284 282 261 261 262 257 247 239 233 223 216 213 210 208 206 205 204 206 205 206 209 212 215 215 214 213 212 209 209 209 211 214 214 210 214 217 220 227 231 245 258
286 283 287 293 300 271 277 283 287 292 283 269 265 261 255 247 242 227 214 210 208 207 207 206 205 206 203 204 207 209 214 215 216 217 216 213 211 209 211 213 213 211 216 218 221 226 233 237 243
262 280 290 300 309 275 293 290 290 293 287 279 276 273 266 260 245 224 211 207 207 207 207 207 208 206 205 207 207 211 217 221 220 219 219 216 214 212 211 214 213 211 216 219 220 221 229 234 228
270 273 293 303 313 272 306 296 296 322 318 306 298 286 279 266 252 228 213 211 209 210 209 208 208 208 207 207 207 210 215 222 219 220 219 217 215 213 213 214 215 214 214 218 217 217 222 229 226
287 295 281 291 306 306 334 305 305 333 338 3 6 360 337 302 264 240 220 215 214 215 212 212 212 211 209 206 209 209 212 219 222 220 220 218 215 215 214 215 215 216 216 219 218 217 221 227 233
285 320 282 285 287 289 270 273 295 330 357 2 3 5 2 350 313 264 237 227 223 218 214 214 215 215 212 210 213 216 223 228 229 224 223 220 216 215 215 214 214 216 217 219 218 217 219 221 229
281 277 250 229 250 267 260 274 296 348 351 343 347 355 360 357 347 316 268 241 231 220 216 215 216 219 215 214 216 219 225 227 227 225 223 220 218 215 215 214 214 215 216 218 218 218 220 222 226
270 303 299 287 273 291 79 266 265 305 330 327 329 342 354 358 355 345 321 267 239 224 219 218 219 223 219 218 220 223 227 228 229 228 226 222 220 217 214 211 213 214 216 216 216 218 220 222 225
313 296 316 310 304 307 286 260 274 309 313 318 331 347 359 0 355 345 332 299 262 238 224 220 222 226 223 222 224 226 228 230 233 231 228 226 224 222 216 212 213 213 213 214 214 218 221 223 226
256 236 326 283 282 279 274 276 291 280 314 353 2 1 357 351 346 341 336 324 299 267 240 228 227 230 227 226 227 229 229 229 232 233 232 231 229 225 218 213 213 213 212 212 212 217 219 221 225
296 216 208 255 291 292 285 278 272 303 326 340 349 350 347 344 342 341 340 336 324 302 274 247 237 238 237 233 232 233 232 232 234 234 233 231 230 225 221 216 213 212 212 211 212 217 220 221 225
182 197 224 247 261 280 293 280 264 288 313 329 336 341 341 341 342 344 343 340 333 321 301 275 256 250 247 241 238 237 237 236 235 234 235 233 231 226 222 218 214 212 211 210 211 215 216 220 225
239 237 217 256 269 249 278 281 277 284 310 326 330 335 338 341 343 344 345 344 342 335 321 298 275 261 255 249 244 243 242 239 237 236 235 233 231 227 223 219 216 214 212 210 211 214 215 218 223
Height
1558 1559 1561 1563 1562 1560 1561 1563 1564 1569 1571 1574 1575 1576 1574 1573 1574 1578 1578 1576 1577 1580 1583 1585 1586 1587 1588 1588 1588 1588 1587 1586 1585 1584 1583 1582 1581 1579 1578 1577 1575 1574 1572 1570 1568 1566 1564 1562 1560
1559 1560 1563 1562 1559 1563 1561 1561 1565 1567 1571 1574 1575 1576 1575 1574 1574 1574 1572 1574 1577 1579 1582 1584 1585 1586 1587 1587 1587 1587 1587 1586 1585 1584 1583 1581 1580 1579 1578 1576 1575 1573 1572 1570 1568 1566 1564 1562 1560
1560 1561 1563 1559 1559 1561 1560 1560 1563 1570 1573 1574 1575 1575 1574 1573 1571 1571 1571 1572 1575 1578 1581 1582 1583 1585 1586 1586 1587 1586 1586 1585 1584 1583 1582 1581 1580 1579 1577 1576 1574 1573 1571 1569 1567 1565 1564 1562 1560
1561 1562 1562 1558 1559 1559 1559 1561 1566 1570 1573 1573 1573 1572 1571 1569 1568 1568 1568 1570 1573 1576 1579 1581 1582 1583 1584 1585 1585 1585 1585 1584 1583 1582 1581 1580 1579 1578 1577 1575 1574 1572 1571 1569 1567 1565 1563 1562 1560
1561 1561 1558 1558 1558 1558 1561 1564 1567 1567 1568 1569 1571 1568 1568 1565 1565 1565 1567 1569 1572 1575 1578 1579 1580 1582 1583 1583 1584 1584 1583 1583 1582 1581 1580 1579 1578 1577 1576 1574 1573 1571 1570 1568 1567 1565 1563 1561 1559
1562 1559 1559 1559 1555 1557 1561 1564 1565 1565 1565 1567 1568 1567 1564 1562 1562 1563 1565 1568 1571 1573 1575 1577 1578 1580 1581 1582 1582 1582 1582 1581 1581 1580 1579 1578 1577 1576 1575 1573 1572 1570 1569 1567 1566 1564 1562 1561 1559
1562 1558 1558 1557 1556 1555 1558 1562 1563 1561 1562 1564 1564 1563 1561 1558 1559 1561 1563 1566 1569 1571 1573 1575 1577 1577 1578 1579 1580 1580 1580 1580 1579 1578 1577 1576 1575 1574 1573 1572 1571 1569 1568 1566 1565 1563 1561 1560 1558
1561 1560 1557 1556 1555 1553 1556 1560 1559 1560 1559 1560 1561 1559 1557 1555 1556 1558 1561 1563 1565 1567 1569 1572 1574 1575 1576 1577 1578 1578 1578 1577 1577 1576 1576 1575 1574 1573 1572 1570 1569 1568 1566 1565 1563 1562 1560 1559 1557
1560 1560 1557 1554 1554 1551 1556 1558 1558 1557 1557 1556 1554 1555 1553 1552 1553 1555 1557 1559 1561 1563 1565 1567 1570 1571 1573 1574 1575 1575 1575 1575 1574 1574 1573 1573 1572 1571 1570 1568 1567 1566 1565 1563 1562 1561 1559 1557 1555
1560 1558 1553 1553 1553 1552 1555 1555 1554 1555 1553 1552 1550 1548 1548 1549 1550 1551 1551 1553 1554 1557 1559 1562 1565 1567 1569 1570 1571 1572 1572 1572 1572 1571 1571 1570 1569 1568 1567 1566 1565 1564 1563 1561 1560 1559 1557 1555 1554
1558 1554 1552 1554 1554 1554 1553 1553 1552 1550 1545 1543 1543 1542 1542 1544 1545 1546 1547 1548 1550 1553 1554 1557 1559 1562 1564 1566 1567 1568 1568 1568 1568 1568 1568 1567 1566 1566 1565 1564 1563 1561 1560 1559 1558 1556 1555 1553 1551
1556 1553 1554 1553 1553 1552 1551 1549 1547 1544 1537 1538 1539 1539 1537 1538 1538 1539 1541 1543 1546 1547 1549 1552 1554 1557 1559 1561 1562 1563 1564 1564 1565 1565 1564 1564 1563 1563 1562 1561 1560 1559 1558 1556 1555 1554 1552 1550 1549
1554 1552 1552 1551 1551 1550 1548 1545 1543 1534 1533 1534 1533 1533 1532 1532 1533 1535 1538 1540 1541 1542 1543 1546 1548 1551 1553 1555 1557 1558 1559 1560 1560 1560 1560 1560 1560 1559 1558 1557 1556 1556 1554 1553 1552 1551 1549 1547 1545
1553 1552 1550 1549 1548 1547 1545 1540 1540 1525 1528 1528 1526 1526 1526 1526 1528 1529 1530 1531 1533 1535 1538 1540 1542 1545 1548 1549 1552 1553 1554 1555 1555 1555 1556 1555 1555 1555 1554 1553 1553 1552 1551 1550 1548 1547 1545 1544 1542
1553 1551 1545 1545 1545 1544 1544 1534 1528 1520 1522 1521 1520 1519 1518 1519 1520 1520 1522 1524 1527 1529 1532 1534 1536 1539 1541 1544 1546 1547 1549 1550 1550 1550 1550 1550 1550 1550 1550 1549 1548 1547 1546 1545 1544 1542 1541 1539 1537
1551 1546 1540 1538 1542 1542 1544 1523 1515 1517 1517 1514 1513 1512 1511 1510 1511 1512 1515 1517 1520 1523 1525 1527 1530 1532 1534 1537 1539 1541 1542 1543 1544 1544 1545 1545 1545 1545 1544 1544 1543 1542 1541 1540 1539 1537 1536 1535 1533
1544 1540 1537 1535 1538 1540 1538 1519 1507 1512 1511 1508 1505 1505 1504 1503 1503 1504 1507 1509 1513 1516 1518 1521 1523 1526 1528 1531 1533 1535 1536 1537 1537 1538 1538 1538 1539 1539 1538 1538 1537 1537 1536 1535 1534 1532 1531 1530 1528
1542 1539 1536 1534 1531 1537 1531 1515 1500 1502 1503 1499 1496 1496 1495 1494 1494 1497 1500 1502 1506 1509 1511 1514 1516 1519 1522 1524 1526 1527 1527 1528 1529 1529 1530 1531 1532 1532 1532 1531 1531 1530 1529 1529 1528 1527 1525 1524 1522
1544 1543 1537 1530 1529 1534 1523 1508 1493 1490 1492 1489 1487 1487 1486 1486 1489 1491 1492 1495 1498 1500 1503 1506 1508 1511 1513 1514 1515 1516 1517 1519 1521 1522 1523 1524 1524 1524 1524 1524 1524 1523 1523 1522 1522 1521 1519 1518 1517
1545 1542 1533 1526 1531 1532 1518 1503 1488 1485 1484 1483 1481 1479 1479 1479 1482 1483 1484 1487 1489 1492 1495 1498 1500 1503 1505 1506 1508 1510 1512 1512 1513 1514 1514 1515 1515 1516 1516 1516 1516 1515 1515 1515 1514 1514 1513 1512 1511
1541 1539 1532 1531 1528 1526 1525 1497 1480 1479 1482 1480 1478 1476 1474 1474 1475 1477 1477 1480 1483 1485 1488 1491 1493 1496 1497 1500 1502 1502 1503 1502 1503 1502 1503 1505 1506 1507 1507 1507 1508 1507 1507 1507 1506 1506 1506 1505 1505
1537 1536 1538 1536 1533 1523 1528 1514 1483 1480 1478 1475 1475 1474 1473 1472 1471 1472 1473 1474 1477 1480 1483 1485 1488 1489 1491 1492 1492 1491 1491 1490 1490 1492 1493 1495 1496 1496 1497 1498 1498 1498 1498 1498 1498 1498 1498 1498 1497
1536 1539 1538 1536 1533 1529 1523 1522 1490 1479 1476 1474 1474 1474 1473 1472 1470 1470 1470 1472 1474 1476 1478 1479 1481 1482 1483 1483 1482 1482 1481 1481 1483 1483 1483 1483 1484 1485 1486 1487 1488 1488 1488 1489 1489 1489 1489 1489 1489
1540 1538 1537 1537 1531 1525 1519 1520 1496 1477 1481 1479 1476 1476 1474 1472 1471 1470 1469 1469 1470 1471 1472 1473 1473 1474 1474 1474 1473 1472 1472 1472 1472 1472 1471 1471 1471 1472 1473 1475 1476 1477 1478 1479 1479 1480 1479 1479 1480
1540 1534 1526 1522 1520 1515 1524 1521 1498 1480 1483 1484 1482 1478 1476 1474 1472 1470 1469 1468 1468 1467 1467 1467 1466 1466 1466 1465 1464 1463 1462 1462 1461 1461 1460 1460 1459 1458 1460 1462 1464 1465 1467 1468 1469 1470 1470 1470 1470
1539 1537 1536 1535 1526 1517 1519 1516 1488 1481 1484 1484 1483 1480 1477 1475 1472 1470 1468 1466 1465 1463 1462 1461 1460 1459 1459 1457 1455 1454 1453 1452 1450 1450 1449 1447 1446 1447 1449 1450 1452 1454 1456 1457 1459 1459 1460 1460 1460
1538 1537 1539 1536 1531 1533 1515 1505 1489 1480 1480 1480 1479 1478 1477 1474 1472 1468 1465 1463 1461 1459 1457 1456 1454 1453 1451 1449 1448 1445 1444 1441 1440 1439 1438 1436 1435 1436 1437 1438 1440 1442 1444 1446 1447 1448 1449 1450 1450
1541 1538 1539 1536 1533 1526 1512 1506 1493 1478 1476 1477 1478 1478 1476 1474 1470 1466 1463 1460 1457 1455 1453 1451 1449 1447 1445 1442 1439 1437 1434 1432 1430 1428 1426 1425 1425 1425 1425 1426 1427 1430 1432 1434 1436 1437 1439 1440 1440
1540 1540 1536 1532 1532 1527 1517 1502 1482 1480 1478 1480 1480 1479 1477 1473 1469 1465 1461 1458 1455 1452 1450 1447 1444 1441 1438 1435 1432 1428 1425 1422 1420 1417 1414 1414 1413 1413 1413 1414 1416 1417 1420 1422 1424 1425 1427 1429 1430
1534 1531 1531 1531 1523 1525 1517 1500 1477 1478 1480 1481 1480 1478 1475 1472 1468 1464 1461 1457 1453 1450 1447 1443 1440 1436 1433 1429 1425 1421 1417 1413 1409 1406 1404 1402 1401 1401 1401 1402 1403 1405 1407 1410 1412 1414 1416 1417 1419